Mineralnyye Vody Airport

Jump to: basic info | weather | frequencies | runways | comments

Related pages: nearby airports | nearby navaids | notams | map

Basic information (top)

Codes: MRV URMM
Location: lon 44.225101, lat 43.081902, elev 1,054 ft / 321 m msl
Status: medium_airport
Scheduled airline service: yes
Links: Wikipedia Mobile

Weather (top)

Current conditions (rec'd 2014/10/24 09:00Z):

URMM 240900Z 08005G08MPS 7000 -DZ OVC005 02/02 Q1021 R12/290150 NOSIG RMK MT OBSC QFE738/0984

Airport forecast (rec'd 2014/10/24 09:00Z):

TAF URMM 240754Z 2409/2509 10007G12MPS 3000 BR OVC007 530001 TM01/2411Z 
      TEMPO 2409/2411 1200 DZ OVC004 
      TEMPO 2411/2504 0300 FZDZ FZFG OVC002 640000 
      TEMPO 2504/2509 1200 SHSN BKN004 BKN010CB OVC010

Frequencies (top)

Verify before use: may be inaccurate or out of date.

APP: 119.3 MHz (APP)
ATIS: 127.4 MHz (ATIS)
GND: 121.9 MHz (TAXIING)
RDR: 120.7 MHz (KRUG)
TWR: 128 MHz (START)

Runways (top)

12/30: 12,795 x 197 ft (3,900 x 60 m) — paved — lighted

Latest comments (top)

No comments yet for Mineralnyye Vody Airport

More... (top)

See also NOTAMs and nearby airports and navaids, or visit the Mineralnyye Vody Airport page at the main OurAirports website..